User: anonymous   Login
Location: Unspecified
(54.5000°N, 0.0000°E)
Time: 02:33:03
(UTC+00:00)
Language:

Cosmos 1190 - Orbit

View from above orbital plane
View from above orbital plane
View from above satellite
View from above satellite

Ground track
Ground track

The orbit is defined by the following mean orbital elements,

1 11869U          26088.01415843 +.00000000 +00000-0 +56150-4 0 00009
2 11869  74.0473 182.8093 0012797  40.8474 319.3635 14.34630749    07
Epoch (UTC): 29 March 2026 00:20:23
Eccentricity: 0.0012797
inclination: 74.0473°
perigee height: 767 km
apogee height: 785 km
right ascension of ascending node: 182.8093°
argument of perigee: 40.8474°
revolutions per day: 14.34630749
mean anomaly at epoch: 319.3635°

The dashed part of the orbit path shows where the satellite is in the earth's shadow,  

DLR